CZ-6A DEB

Satellite information

Favourite Embed

Satellite Type and Status

DEBRISIN ORBIT

Key statistics

Satellite CZ-6A DEB at a glance.

Uptime

273

Days in orbit

Revolutions

≈ 14.4

Per day

Orbit

LEO

Low Earth Orbit

Inclination

88.9

Latest

Satellite identification and parameters

Extended collection of information and parameters for CZ-6A DEB.

Object identification

Identified? True

Debris? True

Object name: CZ-6A DEB

International designator: 2024-140RJ

Object number (NORAD): 61164

Object ID (CCSDS): 61164

Country: PEOPLES REPUBLIC OF CHINA (PRC)

Current information (Y/N): Y

RCS size: SMALL

Orbital parameters

Period: 99.692 minutes

Inclination: 88.9302 deg

SMA: 7121.976 km

Apoapsis: 795.843 km

Periapsis: 691.838 km

RAAN: 317.0708 deg

Eccentricy: 0.0073017

Argument of periapsis: 191.1878 deg

Mean anomaly: 168.7707 deg

Mean motion: 14.44448376 rev/day

Mean motion (dot): 0.00000999 rev/day2

B* drag term: 0.00027598 1/REarth

Two-line elements (TLE)

Creation date: May 6, 2025, 3:54 a.m.

Reference frame: TEME

Reference center: EARTH

Epoch: May 5, 2025, 7:36 a.m. UTC

TLE line 0: 0 CZ-6A DEB

TLE line 1: 1 61164U 24140RJ 25125.31726543 .00000999 00000-0 27598-3 0 9996

TLE line 2: 2 61164 88.9302 317.0708 0073017 191.1878 168.7707 14.44448376 37044

Live tracking on map

Real-time ground track for satellite CZ-6A DEB.

In-orbit conjunctions

A list of the most updated potential collisions computed for object CZ-6A DEB.

Target Orbit TCA Probability of collision Miss distance Type
FENGYUN 1C DEB SSO 2025-04-13 14:01:05 0.0001178565 181.0 (m) DEBRIS
FENGYUN 1C DEB SSO 2025-02-27 07:08:09 0.0001472658 132.0 (m) DEBRIS
COSMOS 374 DEB LEO 2025-02-17 23:11:32 0.000131233 618.0 (m) DEBRIS
NOAA 16 DEB SSO 2024-12-17 16:38:48 0.0001523449 296.0 (m) DEBRIS
OV1-20/OV1-21 DEB LEO 2024-10-11 15:28:45 0.0008830868 588.0 (m) DEBRIS

Associated space launch

18 Low Earth Orbit communication satellites with Ku, Q and V band payloads for the G60 constellation operated by Shanghai Spacecom Satellite Technology (SSST) with funding backed by the Shanghai local government. Initial constellation will consist of 1296 satellites by 2027 with long term plans to expand it to 12000 satellites.

CZ-6A DEB was lifted into orbit during the mission ‘Long March 6A | G60 Polar Group 01’, on board a Long March 6A space rocket.

The launch took place on Aug. 6, 2024, 6:42 a.m. from Launch Complex 9A.

For more information about the launch, click the button.

Launch to space Long March 6A | G60 Polar Group 01
Long March 6A | G60 Polar Group 01

Agency: N/A

Status: Launch Successful

Launch date: Aug. 6, 2024, 6:42 a.m. UTC

Rocket: Long March 6A

Launch pad: Launch Complex 9A

Location: Taiyuan Satellite Launch Center, People's Republic of China

...

Latest news about this satellite

News about space launch
Brightness of first Chinese broadband constellation satellites alarms astronomers

The first satellites of a Chinese broadband constellation are significantly brighter than those of Western systems, posing a new challenge for astronomers.

News about space launch
Chinese rocket stage breaks up into cloud of more than 700 pieces of space debris

HELSINKI — A Chinese Long March 6A rocket’s upper stage has fragmented into a cloud of over 700 pieces of space debris, adding to concerns about long-term orbital safety. China […]

News about space launch
China's Thousand Sails Megaconstellation Kicks Off with Dangerous Debris Field

China's Thousand Sails Megaconstellation Kicks Off with Dangerous Debris Field


Newsletter sign-up

Weekly statistics, charts and insights to help you stay on top of the space industry.